DLH473 ESSA-EDDF

Flight info

Callsign DLH473
Flight time 1h 56m
Altitude 40000
Route NOSLI N850 ABAMA DCT SONAL DCT POVEL DCT RIMET/N0442F310 T157 KOKEB/N0390F230 T157 KERAX KERAX5A
Aircraft A388/J-SADE2E3FGHIJ3J4J5M1RWXY/LB1D1

Departure

Time 2026-05-05 14:40
Airport Stockholm-Arlanda Airport (ESSA)

Arrival

Time 2026-05-05 16:36
Airport Frankfurt Main Airport (EDDF)
Time Latitude Longitude Altitude Speed Heading
2026-05-05 13:47 59.65467 17.94006 143 ft 0 kts 76°
2026-05-05 14:22 59.65464 17.93988 143 ft 3 kts 75°
2026-05-05 14:22 59.65455 17.93947 143 ft 4 kts 48°
2026-05-05 14:23 59.65442 17.93930 143 ft 4 kts
2026-05-05 14:23 59.65419 17.93937 143 ft 4 kts 343°
2026-05-05 14:23 59.65400 17.93948 143 ft 0 kts 347°
2026-05-05 14:28 59.65403 17.93946 143 ft 2 kts 347°
2026-05-05 14:29 59.65434 17.93933 143 ft 7 kts 347°
2026-05-05 14:29 59.65487 17.93909 143 ft 9 kts 346°
2026-05-05 14:29 59.65549 17.93875 143 ft 10 kts 344°
2026-05-05 14:29 59.65621 17.93838 143 ft 11 kts 345°
2026-05-05 14:30 59.65668 17.93754 143 ft 9 kts 279°
2026-05-05 14:30 59.65663 17.93663 143 ft 1 kts 256°
2026-05-05 14:30 59.65661 17.93651 143 ft 0 kts 256°
2026-05-05 14:30 59.65660 17.93645 143 ft 0 kts 256°
2026-05-05 14:31 59.65660 17.93643 143 ft 1 kts 256°
2026-05-05 14:31 59.65654 17.93594 143 ft 6 kts 255°
2026-05-05 14:31 59.65642 17.93506 143 ft 7 kts 256°
2026-05-05 14:32 59.65627 17.93389 143 ft 10 kts 256°
2026-05-05 14:32 59.65610 17.93245 143 ft 11 kts 256°
2026-05-05 14:32 59.65590 17.93090 143 ft 12 kts 256°
2026-05-05 14:32 59.65569 17.92917 143 ft 13 kts 256°
2026-05-05 14:33 59.65545 17.92734 143 ft 15 kts 255°
2026-05-05 14:33 59.65514 17.92537 143 ft 15 kts 242°
2026-05-05 14:33 59.65445 17.92379 143 ft 15 kts 225°
2026-05-05 14:33 59.65356 17.92273 143 ft 16 kts 191°
2026-05-05 14:34 59.65248 17.92235 143 ft 13 kts 190°
2026-05-05 14:34 59.65182 17.92211 143 ft 15 kts 190°
2026-05-05 14:34 59.65069 17.92172 143 ft 18 kts 190°
2026-05-05 14:34 59.64961 17.92132 143 ft 15 kts 191°
2026-05-05 14:35 59.64851 17.92093 143 ft 17 kts 190°
2026-05-05 14:35 59.64726 17.92048 143 ft 19 kts 190°
2026-05-05 14:35 59.64587 17.91997 143 ft 21 kts 191°
2026-05-05 14:35 59.64442 17.91943 143 ft 22 kts 190°
2026-05-05 14:36 59.64293 17.91889 143 ft 20 kts 190°
2026-05-05 14:36 59.64153 17.91839 143 ft 18 kts 191°
2026-05-05 14:36 59.64023 17.91791 143 ft 19 kts 191°
2026-05-05 14:36 59.63894 17.91744 143 ft 18 kts 192°
2026-05-05 14:37 59.63812 17.91659 143 ft 10 kts 219°
2026-05-05 14:37 59.63798 17.91636 144 ft 0 kts 220°
2026-05-05 14:37 59.63798 17.91635 144 ft 0 kts 220°
2026-05-05 14:37 59.63781 17.91607 144 ft 6 kts 221°
2026-05-05 14:38 59.63745 17.91542 144 ft 7 kts 232°
2026-05-05 14:38 59.63730 17.91471 146 ft 4 kts 265°
2026-05-05 14:38 59.63733 17.91413 150 ft 4 kts 289°
2026-05-05 14:38 59.63757 17.91347 152 ft 11 kts 334°
2026-05-05 14:39 59.63821 17.91352 150 ft 4 kts 12°
2026-05-05 14:39 59.63822 17.91353 150 ft 0 kts 11°
2026-05-05 14:39 59.63982 17.91410 149 ft 65 kts 11°
2026-05-05 14:40 59.64678 17.91662 151 ft 132 kts 10°
2026-05-05 14:40 59.65705 17.92022 310 ft 156 kts
2026-05-05 14:40 59.66781 17.92426 792 ft 161 kts
2026-05-05 14:40 59.67891 17.92838 1395 ft 162 kts
2026-05-05 14:41 59.68990 17.93269 1953 ft 164 kts
2026-05-05 14:41 59.70163 17.93366 2217 ft 176 kts 343°
2026-05-05 14:41 59.71271 17.92241 2499 ft 186 kts 313°
2026-05-05 14:41 59.71884 17.89939 2784 ft 200 kts 279°
2026-05-05 14:42 59.71639 17.87208 3526 ft 208 kts 243°
2026-05-05 14:42 59.70877 17.84786 4623 ft 204 kts 240°
2026-05-05 14:42 59.70132 17.82362 5584 ft 206 kts 241°
2026-05-05 14:42 59.69396 17.79928 6568 ft 206 kts 242°
2026-05-05 14:43 59.68717 17.77448 7465 ft 208 kts 249°
2026-05-05 14:43 59.68266 17.74705 8293 ft 216 kts 255°
2026-05-05 14:43 59.67811 17.71721 8822 ft 237 kts 254°
2026-05-05 14:43 59.67284 17.68476 9297 ft 258 kts 248°
2026-05-05 14:44 59.66218 17.65538 10005 ft 270 kts 222°
2026-05-05 14:44 59.64523 17.63660 10476 ft 294 kts 202°
2026-05-05 14:44 59.62497 17.62416 10715 ft 316 kts 200°
2026-05-05 14:44 59.60354 17.61163 11294 ft 324 kts 200°
2026-05-05 14:45 59.58188 17.59890 12118 ft 326 kts 201°
2026-05-05 14:45 59.56010 17.58591 12911 ft 327 kts 204°
2026-05-05 14:45 59.53839 17.57281 13784 ft 327 kts 205°
2026-05-05 14:45 59.51665 17.55953 14548 ft 326 kts 206°
2026-05-05 14:46 59.49523 17.54544 15362 ft 323 kts 208°
2026-05-05 14:46 59.47403 17.53060 16121 ft 323 kts 208°
2026-05-05 14:46 59.45290 17.51573 16888 ft 323 kts 209°
2026-05-05 14:46 59.43170 17.50096 17637 ft 323 kts 209°
2026-05-05 14:47 59.41047 17.48634 18351 ft 324 kts 209°
2026-05-05 14:47 59.38906 17.47163 18854 ft 328 kts 209°
2026-05-05 14:47 59.36738 17.45680 19379 ft 331 kts 209°
2026-05-05 14:47 59.34577 17.44208 19897 ft 334 kts 209°
2026-05-05 14:48 59.32365 17.42705 20413 ft 338 kts 209°
2026-05-05 14:48 59.30141 17.41197 20907 ft 341 kts 208°
2026-05-05 14:48 59.27872 17.39657 21265 ft 347 kts 208°
2026-05-05 14:48 59.25581 17.38106 21810 ft 349 kts 208°
2026-05-05 14:49 59.23279 17.36553 22340 ft 351 kts 208°
2026-05-05 14:49 59.20959 17.34987 22857 ft 354 kts 208°
2026-05-05 14:49 59.18621 17.33412 23356 ft 357 kts 208°
2026-05-05 14:49 59.16259 17.31825 23789 ft 360 kts 208°
2026-05-05 14:50 59.13885 17.30232 24227 ft 362 kts 208°
2026-05-05 14:50 59.11494 17.28629 24670 ft 364 kts 208°
2026-05-05 14:50 59.09140 17.26865 25103 ft 362 kts 212°
2026-05-05 14:50 59.06912 17.24612 25560 ft 359 kts 218°
2026-05-05 14:51 59.04865 17.21943 26030 ft 357 kts 224°
2026-05-05 14:51 59.02949 17.18883 26461 ft 357 kts 226°
2026-05-05 14:51 59.01036 17.15741 26855 ft 363 kts 226°
2026-05-05 14:51 58.99093 17.12590 27404 ft 365 kts 225°
2026-05-05 14:52 58.97126 17.09422 27915 ft 369 kts 225°
2026-05-05 14:52 58.95142 17.06235 28439 ft 372 kts 225°
2026-05-05 14:52 58.93143 17.03032 28960 ft 375 kts 225°
2026-05-05 14:52 58.91121 16.99794 29466 ft 378 kts 225°
2026-05-05 14:53 58.89083 16.96537 29994 ft 382 kts 225°
2026-05-05 14:53 58.87023 16.93250 30448 ft 385 kts 225°
2026-05-05 14:53 58.84947 16.89942 30894 ft 388 kts 225°
2026-05-05 14:53 58.82849 16.86603 31321 ft 392 kts 225°
2026-05-05 14:54 58.80733 16.83242 31749 ft 395 kts 225°
2026-05-05 14:54 58.78606 16.79869 32132 ft 399 kts 225°
2026-05-05 14:54 58.76444 16.76444 32446 ft 405 kts 225°
2026-05-05 14:54 58.74257 16.72987 32916 ft 407 kts 225°
2026-05-05 14:55 58.72058 16.69520 33348 ft 411 kts 225°
2026-05-05 14:55 58.69863 16.66062 33756 ft 414 kts 225°
2026-05-05 14:55 58.67622 16.62539 34115 ft 418 kts 224°
2026-05-05 14:55 58.65353 16.58975 34410 ft 423 kts 224°
2026-05-05 14:56 58.63059 16.55381 34761 ft 426 kts 224°
2026-05-05 14:56 58.60760 16.51786 35160 ft 428 kts 224°
2026-05-05 14:56 58.58437 16.48161 35581 ft 430 kts 224°
2026-05-05 14:56 58.56114 16.44541 35976 ft 432 kts 224°
2026-05-05 14:57 58.53775 16.40901 36339 ft 434 kts 223°
2026-05-05 14:57 58.51460 16.37306 36728 ft 435 kts 223°
2026-05-05 14:57 58.49098 16.33644 37129 ft 437 kts 223°
2026-05-05 14:57 58.46725 16.29971 37527 ft 439 kts 223°
2026-05-05 14:58 58.44347 16.26297 37922 ft 440 kts 223°
2026-05-05 14:58 58.41961 16.22618 38316 ft 442 kts 223°
2026-05-05 14:58 58.39568 16.18934 38681 ft 443 kts 222°
2026-05-05 14:58 58.37165 16.15242 38981 ft 444 kts 222°
2026-05-05 14:59 58.34757 16.11548 39287 ft 445 kts 222°
2026-05-05 14:59 58.32341 16.07849 39585 ft 446 kts 222°
2026-05-05 14:59 58.29909 16.04131 39818 ft 448 kts 222°
2026-05-05 14:59 58.27464 16.00398 39887 ft 455 kts 222°
2026-05-05 15:00 58.23375 15.94179 39891 ft 449 kts 222°
2026-05-05 15:00 58.17688 15.85554 39892 ft 451 kts 222°
2026-05-05 15:01 58.12779 15.78140 39889 ft 451 kts 222°
2026-05-05 15:01 58.07862 15.70740 39889 ft 452 kts 222°
2026-05-05 15:02 58.02941 15.63361 39879 ft 451 kts 221°
2026-05-05 15:02 57.97848 15.56375 39883 ft 455 kts 216°
2026-05-05 15:03 57.92289 15.50604 39881 ft 458 kts 211°
2026-05-05 15:03 57.86602 15.45133 39885 ft 459 kts 211°
2026-05-05 15:04 57.80932 15.39614 39888 ft 459 kts 211°
2026-05-05 15:04 57.75261 15.34096 39888 ft 459 kts 211°
2026-05-05 15:05 57.66775 15.25881 39895 ft 460 kts 211°
2026-05-05 15:06 57.61086 15.20400 39889 ft 460 kts 211°
2026-05-05 15:06 57.55397 15.14940 39859 ft 459 kts 211°
2026-05-05 15:07 57.49712 15.09502 39880 ft 459 kts 211°
2026-05-05 15:07 57.44027 15.04084 39876 ft 459 kts 211°
2026-05-05 15:08 57.38367 14.98707 39878 ft 459 kts 211°
2026-05-05 15:08 57.32671 14.93316 39884 ft 460 kts 211°
2026-05-05 15:09 57.26969 14.87937 39883 ft 460 kts 211°
2026-05-05 15:09 57.21260 14.82571 39883 ft 460 kts 211°
2026-05-05 15:10 57.15544 14.77218 39888 ft 460 kts 211°
2026-05-05 15:10 57.09836 14.71889 39889 ft 461 kts 211°
2026-05-05 15:11 57.04110 14.66564 39888 ft 460 kts 211°
2026-05-05 15:11 56.98391 14.61263 39889 ft 461 kts 210°
2026-05-05 15:12 56.92706 14.56011 39888 ft 461 kts 210°
2026-05-05 15:12 56.86972 14.50732 39885 ft 461 kts 210°
2026-05-05 15:13 56.81231 14.45466 39866 ft 461 kts 210°
2026-05-05 15:13 56.75494 14.40222 39886 ft 461 kts 210°
2026-05-05 15:14 56.69753 14.34991 39891 ft 461 kts 210°
2026-05-05 15:14 56.64001 14.29768 39895 ft 462 kts 210°
2026-05-05 15:15 56.58251 14.24565 39898 ft 462 kts 210°
2026-05-05 15:15 56.52494 14.19375 39887 ft 461 kts 210°
2026-05-05 15:16 56.46741 14.14204 39888 ft 462 kts 210°
2026-05-05 15:16 56.41022 14.09081 39901 ft 462 kts 210°
2026-05-05 15:17 56.35255 14.03934 39906 ft 462 kts 210°
2026-05-05 15:17 56.29489 13.98804 39904 ft 461 kts 210°
2026-05-05 15:18 56.23733 13.93701 39900 ft 461 kts 210°
2026-05-05 15:18 56.18029 13.88661 39900 ft 461 kts 210°
2026-05-05 15:19 56.12269 13.83589 39902 ft 461 kts 210°
2026-05-05 15:19 56.07474 13.79379 39906 ft 461 kts 210°
2026-05-05 15:20 56.01716 13.74339 39912 ft 460 kts 209°
2026-05-05 15:20 55.95957 13.69315 39915 ft 461 kts 209°
2026-05-05 15:21 55.90183 13.64294 39916 ft 461 kts 209°
2026-05-05 15:21 55.84415 13.59296 39915 ft 461 kts 209°
2026-05-05 15:22 55.78648 13.54315 39908 ft 461 kts 209°
2026-05-05 15:22 55.72877 13.49348 39912 ft 461 kts 209°
2026-05-05 15:23 55.67095 13.44387 39914 ft 461 kts 209°
2026-05-05 15:23 55.61317 13.39445 39912 ft 461 kts 209°
2026-05-05 15:24 55.55568 13.34545 39906 ft 461 kts 209°
2026-05-05 15:24 55.49780 13.29628 39917 ft 461 kts 209°
2026-05-05 15:25 55.43989 13.24724 39911 ft 462 kts 209°
2026-05-05 15:25 55.38187 13.19827 39915 ft 462 kts 209°
2026-05-05 15:26 55.32389 13.14949 39921 ft 462 kts 209°
2026-05-05 15:26 55.26585 13.10082 39922 ft 462 kts 208°
2026-05-05 15:27 55.20791 13.05240 39917 ft 462 kts 208°
2026-05-05 15:27 55.15010 13.00423 39922 ft 461 kts 208°
2026-05-05 15:28 55.09216 12.95611 39897 ft 461 kts 208°
2026-05-05 15:28 55.03414 12.90807 39923 ft 461 kts 208°
2026-05-05 15:29 54.97615 12.86021 39925 ft 461 kts 208°
2026-05-05 15:29 54.91802 12.81233 39926 ft 462 kts 208°
2026-05-05 15:30 54.85948 12.76542 39927 ft 463 kts 206°
2026-05-05 15:30 54.80080 12.72119 39927 ft 462 kts 207°
2026-05-05 15:31 54.74188 12.67639 39926 ft 463 kts 207°
2026-05-05 15:31 54.68284 12.63168 39924 ft 463 kts 207°
2026-05-05 15:32 54.62371 12.58713 39925 ft 463 kts 207°
2026-05-05 15:32 54.56468 12.54283 39921 ft 462 kts 207°
2026-05-05 15:33 54.50564 12.49865 39924 ft 462 kts 207°
2026-05-05 15:33 54.44664 12.45464 39924 ft 462 kts 207°
2026-05-05 15:34 54.38800 12.41104 39920 ft 462 kts 206°
2026-05-05 15:34 54.32903 12.36733 39920 ft 461 kts 206°
2026-05-05 15:35 54.27009 12.32378 39916 ft 461 kts 206°
2026-05-05 15:35 54.21116 12.28037 39916 ft 461 kts 206°
2026-05-05 15:36 54.15213 12.23702 39912 ft 462 kts 206°
2026-05-05 15:36 54.09303 12.19377 39919 ft 461 kts 206°
2026-05-05 15:37 54.03393 12.15064 39923 ft 462 kts 206°
2026-05-05 15:37 53.97528 12.10797 39917 ft 461 kts 206°
2026-05-05 15:38 53.91626 12.06517 39914 ft 461 kts 206°
2026-05-05 15:38 53.85730 12.02254 39918 ft 460 kts 206°
2026-05-05 15:39 53.79844 11.98012 39919 ft 459 kts 206°
2026-05-05 15:39 53.73956 11.93781 39912 ft 459 kts 206°
2026-05-05 15:40 53.68079 11.89570 39907 ft 459 kts 206°
2026-05-05 15:40 53.62232 11.85394 39895 ft 459 kts 206°
2026-05-05 15:41 53.56339 11.81198 39895 ft 459 kts 206°
2026-05-05 15:41 53.50448 11.77017 39898 ft 460 kts 206°
2026-05-05 15:42 53.44597 11.72877 39900 ft 460 kts 206°
2026-05-05 15:42 53.38692 11.68710 39888 ft 461 kts 206°
2026-05-05 15:43 53.32773 11.64546 39888 ft 462 kts 206°
2026-05-05 15:43 53.26845 11.60388 39893 ft 462 kts 205°
2026-05-05 15:44 53.20908 11.56236 39893 ft 463 kts 205°
2026-05-05 15:44 53.14956 11.52087 39895 ft 463 kts 205°
2026-05-05 15:45 53.09007 11.47953 39893 ft 463 kts 205°
2026-05-05 15:45 53.03059 11.43830 39895 ft 463 kts 205°
2026-05-05 15:46 52.97107 11.39718 39892 ft 463 kts 205°
2026-05-05 15:46 52.91192 11.35643 39893 ft 463 kts 205°
2026-05-05 15:47 52.85245 11.31559 39890 ft 463 kts 205°
2026-05-05 15:47 52.79292 11.27482 39885 ft 462 kts 205°
2026-05-05 15:48 52.73341 11.23420 39883 ft 462 kts 205°
2026-05-05 15:48 52.67405 11.19379 39897 ft 461 kts 205°
2026-05-05 15:49 52.61467 11.15349 39895 ft 461 kts 205°
2026-05-05 15:49 52.55579 11.11364 39894 ft 460 kts 205°
2026-05-05 15:50 52.49617 11.07341 39875 ft 460 kts 205°
2026-05-05 15:50 52.43738 11.03386 39887 ft 459 kts 205°
2026-05-05 15:51 52.37831 10.99424 39886 ft 458 kts 205°
2026-05-05 15:51 52.31929 10.95476 39885 ft 458 kts 205°
2026-05-05 15:52 52.26037 10.91545 39878 ft 457 kts 205°
2026-05-05 15:52 52.20179 10.87648 39886 ft 456 kts 205°
2026-05-05 15:53 52.14302 10.83746 39876 ft 456 kts 205°
2026-05-05 15:53 52.08494 10.79604 39871 ft 454 kts 208°
2026-05-05 15:54 52.02822 10.75052 39848 ft 454 kts 208°
2026-05-05 15:54 51.97148 10.70586 39860 ft 453 kts 207°
2026-05-05 15:55 51.91456 10.66174 39853 ft 453 kts 207°
2026-05-05 15:55 51.85769 10.61788 39843 ft 452 kts 207°
2026-05-05 15:56 51.80118 10.57441 39819 ft 452 kts 207°
2026-05-05 15:56 51.74439 10.53085 39830 ft 452 kts 207°
2026-05-05 15:57 51.68754 10.48735 39814 ft 452 kts 207°
2026-05-05 15:57 51.63072 10.44399 39817 ft 452 kts 207°
2026-05-05 15:58 51.57375 10.40065 39805 ft 452 kts 206°
2026-05-05 15:58 51.51720 10.35775 39802 ft 451 kts 206°
2026-05-05 15:59 51.46073 10.31503 39805 ft 451 kts 206°
2026-05-05 15:59 51.40394 10.27218 39800 ft 451 kts 206°
2026-05-05 16:00 51.34497 10.23752 39794 ft 453 kts 196°
2026-05-05 16:00 51.28283 10.21957 39799 ft 455 kts 187°
2026-05-05 16:01 51.21934 10.21685 39793 ft 457 kts 183°
2026-05-05 16:01 51.15575 10.21581 39786 ft 457 kts 183°
2026-05-05 16:02 51.09211 10.21459 39764 ft 457 kts 183°
2026-05-05 16:02 51.06085 10.21404 39568 ft 453 kts 183°
2026-05-05 16:02 51.02953 10.21350 39341 ft 448 kts 183°
2026-05-05 16:02 50.99844 10.21296 39115 ft 446 kts 183°
2026-05-05 16:03 50.96730 10.21240 38881 ft 446 kts 183°
2026-05-05 16:03 50.93627 10.21184 38664 ft 445 kts 183°
2026-05-05 16:03 50.90528 10.21128 38430 ft 444 kts 183°
2026-05-05 16:03 50.87440 10.21072 38137 ft 445 kts 183°
2026-05-05 16:04 50.84365 10.20595 37847 ft 444 kts 194°
2026-05-05 16:04 50.81470 10.19111 37583 ft 443 kts 205°
2026-05-05 16:04 50.78819 10.16646 37298 ft 442 kts 217°
2026-05-05 16:04 50.76573 10.13331 37013 ft 444 kts 229°
2026-05-05 16:05 50.74825 10.09302 36757 ft 447 kts 240°
2026-05-05 16:05 50.73606 10.04757 36506 ft 451 kts 248°
2026-05-05 16:05 50.72549 10.00089 36234 ft 451 kts 247°
2026-05-05 16:05 50.71386 9.95482 35966 ft 450 kts 244°
2026-05-05 16:06 50.70105 9.90982 35578 ft 449 kts 242°
2026-05-05 16:06 50.68744 9.86545 34794 ft 451 kts 241°
2026-05-05 16:06 50.67811 9.83605 34147 ft 454 kts 241°
2026-05-05 16:06 50.66371 9.79141 33135 ft 459 kts 240°
2026-05-05 16:07 50.64905 9.74652 32297 ft 458 kts 238°
2026-05-05 16:07 50.62421 9.69447 31704 ft 443 kts 222°
2026-05-05 16:07 50.60061 9.66411 31333 ft 432 kts 212°
2026-05-05 16:07 50.58311 9.64843 31022 ft 427 kts 204°
2026-05-05 16:08 50.55569 9.63120 30561 ft 421 kts 200°
2026-05-05 16:08 50.52866 9.61450 30104 ft 415 kts 204°
2026-05-05 16:08 50.50407 9.59139 29641 ft 411 kts 216°
2026-05-05 16:08 50.48339 9.56078 29170 ft 408 kts 227°
2026-05-05 16:09 50.46723 9.52434 28665 ft 407 kts 239°
2026-05-05 16:09 50.45615 9.48341 28182 ft 407 kts 250°
2026-05-05 16:09 50.44852 9.44152 27700 ft 402 kts 250°
2026-05-05 16:09 50.44068 9.39955 27207 ft 398 kts 250°
2026-05-05 16:10 50.43280 9.35805 26715 ft 395 kts 250°
2026-05-05 16:10 50.42494 9.31692 26249 ft 392 kts 250°
2026-05-05 16:10 50.41713 9.27615 25760 ft 389 kts 250°
2026-05-05 16:10 50.40901 9.23591 25330 ft 384 kts 246°
2026-05-05 16:11 50.39979 9.19689 24903 ft 380 kts 246°
2026-05-05 16:11 50.37287 9.08087 23573 ft 376 kts 247°
2026-05-05 16:12 50.36369 9.04152 23342 ft 394 kts 246°
2026-05-05 16:12 50.33269 8.97158 22850 ft 392 kts 218°
2026-05-05 16:13 50.25614 8.93260 19354 ft 397 kts 173°
2026-05-05 16:13 50.22946 8.94235 18419 ft 393 kts 158°
2026-05-05 16:13 50.20570 8.96311 17474 ft 391 kts 142°
2026-05-05 16:14 50.17466 9.03029 15663 ft 384 kts 109°
2026-05-05 16:14 50.17335 9.11208 13899 ft 382 kts 74°
2026-05-05 16:15 50.20275 9.17921 12069 ft 378 kts 36°
2026-05-05 16:15 50.24754 9.21881 10951 ft 358 kts 27°
2026-05-05 16:16 50.29061 9.25409 10803 ft 347 kts 36°
2026-05-05 16:16 50.31858 9.31402 10802 ft 347 kts 72°
2026-05-05 16:17 50.33428 9.38517 10195 ft 341 kts 72°
2026-05-05 16:17 50.34184 9.41888 9963 ft 322 kts 72°
2026-05-05 16:18 50.35620 9.48160 9605 ft 305 kts 72°
2026-05-05 16:18 50.36355 9.51362 9563 ft 315 kts 72°
2026-05-05 16:18 50.37826 9.57731 9522 ft 302 kts 72°
2026-05-05 16:19 50.38533 9.60794 9439 ft 295 kts 72°
2026-05-05 16:19 50.39226 9.63800 9302 ft 291 kts 72°
2026-05-05 16:19 50.40496 9.69811 9026 ft 288 kts 85°
2026-05-05 16:20 50.39329 9.75420 8764 ft 268 kts 137°
2026-05-05 16:20 50.36163 9.77482 8570 ft 243 kts 181°
2026-05-05 16:21 50.33104 9.75646 8006 ft 241 kts 223°
2026-05-05 16:22 50.30829 9.68676 7166 ft 240 kts 245°
2026-05-05 16:22 50.29521 9.63906 6642 ft 237 kts 245°
2026-05-05 16:23 50.28225 9.59174 6120 ft 235 kts 245°
2026-05-05 16:23 50.27581 9.56818 5811 ft 235 kts 245°
2026-05-05 16:23 50.26302 9.52144 5288 ft 233 kts 245°
2026-05-05 16:24 50.25665 9.49820 5064 ft 230 kts 245°
2026-05-05 16:24 50.25049 9.47576 4816 ft 228 kts 245°
2026-05-05 16:24 50.23801 9.43024 4230 ft 227 kts 246°
2026-05-05 16:25 50.23208 9.40736 4025 ft 227 kts 249°
2026-05-05 16:25 50.22147 9.36135 4013 ft 226 kts 248°
2026-05-05 16:25 50.21602 9.33802 4011 ft 231 kts 249°
2026-05-05 16:26 50.20529 9.29123 4020 ft 227 kts 249°
2026-05-05 16:26 50.19481 9.24505 4007 ft 226 kts 249°
2026-05-05 16:27 50.18958 9.22205 4015 ft 225 kts 249°
2026-05-05 16:27 50.18418 9.19884 4016 ft 228 kts 249°
2026-05-05 16:27 50.17879 9.17579 4017 ft 225 kts 249°
2026-05-05 16:27 50.17362 9.15341 4016 ft 213 kts 248°
2026-05-05 16:28 50.16886 9.13190 4009 ft 208 kts 252°
2026-05-05 16:28 50.16468 9.11080 4008 ft 203 kts 250°
2026-05-05 16:28 50.16015 9.09001 4008 ft 204 kts 248°
2026-05-05 16:28 50.15522 9.06914 4016 ft 205 kts 248°
2026-05-05 16:29 50.15027 9.04833 4010 ft 202 kts 248°
2026-05-05 16:29 50.14548 9.02835 4015 ft 191 kts 247°
2026-05-05 16:29 50.14098 9.00932 4012 ft 185 kts 247°
2026-05-05 16:29 50.13659 8.99097 4024 ft 185 kts 246°
2026-05-05 16:30 50.13202 8.97182 4021 ft 189 kts 247°
2026-05-05 16:30 50.12755 8.95284 4016 ft 185 kts 248°
2026-05-05 16:30 50.12305 8.93402 4020 ft 182 kts 247°
2026-05-05 16:30 50.11868 8.91571 4015 ft 181 kts 248°
2026-05-05 16:31 50.11418 8.89680 4028 ft 186 kts 247°
2026-05-05 16:31 50.10979 8.87851 4018 ft 182 kts 248°
2026-05-05 16:31 50.10536 8.85989 4005 ft 182 kts 248°
2026-05-05 16:31 50.10096 8.84143 3830 ft 181 kts 248°
2026-05-05 16:32 50.09659 8.82315 3583 ft 184 kts 248°
2026-05-05 16:32 50.09216 8.80452 3322 ft 179 kts 248°
2026-05-05 16:32 50.08782 8.78636 3087 ft 181 kts 249°
2026-05-05 16:32 50.08344 8.76805 2843 ft 179 kts 248°
2026-05-05 16:33 50.07913 8.74995 2609 ft 178 kts 249°
2026-05-05 16:33 50.07487 8.73209 2376 ft 174 kts 248°
2026-05-05 16:33 50.07082 8.71517 2152 ft 163 kts 249°
2026-05-05 16:33 50.06696 8.69898 1932 ft 154 kts 249°
2026-05-05 16:34 50.06341 8.68420 1741 ft 140 kts 249°
2026-05-05 16:34 50.06018 8.67060 1553 ft 131 kts 250°
2026-05-05 16:34 50.05698 8.65729 1383 ft 133 kts 249°
2026-05-05 16:34 50.05376 8.64377 1185 ft 133 kts 250°
2026-05-05 16:35 50.05037 8.63021 1010 ft 137 kts 249°
2026-05-05 16:35 50.04701 8.61667 826 ft 135 kts 251°
2026-05-05 16:35 50.04391 8.60289 642 ft 133 kts 251°
2026-05-05 16:35 50.04074 8.58953 453 ft 131 kts 250°
2026-05-05 16:36 50.03767 8.57667 367 ft 111 kts 250°
2026-05-05 16:36 50.03549 8.56740 364 ft 75 kts 250°
2026-05-05 16:36 50.03399 8.56110 360 ft 50 kts 249°
2026-05-05 16:36 50.03340 8.55856 354 ft 14 kts 253°
2026-05-05 16:37 50.03311 8.55688 352 ft 17 kts 264°
2026-05-05 16:37 50.03313 8.55505 350 ft 17 kts 277°
2026-05-05 16:37 50.03328 8.55359 354 ft 11 kts 279°
2026-05-05 16:37 50.03339 8.55263 350 ft 9 kts 279°
2026-05-05 16:38 50.03350 8.55149 353 ft 13 kts 279°
2026-05-05 16:38 50.03365 8.55000 351 ft 15 kts 271°
2026-05-05 16:38 50.03340 8.54836 352 ft 17 kts 247°
2026-05-05 16:38 50.03296 8.54657 351 ft 17 kts 249°
2026-05-05 16:39 50.03280 8.54522 351 ft 8 kts 301°
2026-05-05 16:39 50.03333 8.54466 352 ft 9 kts 339°
2026-05-05 16:39 50.03364 8.54448 349 ft 0 kts 340°
2026-05-05 16:40 50.03377 8.54441 353 ft 5 kts 341°
2026-05-05 16:40 50.03424 8.54415 352 ft 9 kts 340°
2026-05-05 16:40 50.03490 8.54378 354 ft 12 kts 339°
2026-05-05 16:40 50.03565 8.54335 355 ft 9 kts 340°
2026-05-05 16:41 50.03573 8.54330 355 ft 0 kts 340°
2026-05-05 16:42 50.03579 8.54327 362 ft 3 kts 340°
2026-05-05 16:42 50.03617 8.54309 355 ft 7 kts 355°
2026-05-05 16:42 50.03659 8.54337 356 ft 8 kts 55°
2026-05-05 16:43 50.03690 8.54447 354 ft 14 kts 70°
2026-05-05 16:43 50.03727 8.54600 358 ft 17 kts 70°
2026-05-05 16:43 50.03771 8.54786 359 ft 20 kts 70°
2026-05-05 16:43 50.03817 8.54982 361 ft 20 kts 70°
2026-05-05 16:44 50.03868 8.55197 362 ft 22 kts 69°
2026-05-05 16:44 50.03922 8.55421 358 ft 18 kts 70°
2026-05-05 16:44 50.03972 8.55629 362 ft 22 kts 69°
2026-05-05 16:44 50.04015 8.55806 362 ft 10 kts 69°
2026-05-05 16:45 50.04026 8.55852 364 ft 0 kts 70°
2026-05-05 16:45 50.04026 8.55853 364 ft 1 kts 70°
2026-05-05 16:45 50.04036 8.55895 363 ft 7 kts 68°
2026-05-05 16:45 50.04075 8.55960 362 ft 9 kts 21°
2026-05-05 16:46 50.04137 8.55946 365 ft 11 kts 337°
2026-05-05 16:46 50.04211 8.55924 359 ft 11 kts 14°
2026-05-05 16:46 50.04290 8.55955 364 ft 13 kts 352°
2026-05-05 16:46 50.04381 8.55912 367 ft 15 kts 350°
2026-05-05 16:47 50.04465 8.55927 364 ft 11 kts 17°
2026-05-05 16:47 50.04544 8.55975 363 ft 13 kts 43°
2026-05-05 16:47 50.04589 8.56058 365 ft 7 kts 29°
2026-05-05 16:47 50.04639 8.56061 368 ft 7 kts 342°
2026-05-05 16:48 50.04658 8.56052 366 ft 0 kts 342°
2026-05-05 16:48 50.04666 8.56048 365 ft 2 kts 341°
2026-05-05 16:48 50.04667 8.56047 365 ft 0 kts 341°